Regional Weather Roundup
Issued by NWS

Home | Current Version | Previous Version | Text Only | Print | Product List | Glossary Off
Versions: 1 2 3 4 5 6 7 8 9 10 11 12 13 14 15 16 17 18 19 20 21 22 23 24 25 26 27 28 29 30 31 32 33 34 35 36 37 38 39 40 41 42 43 44 45 46 47 48 49 50

053
ASUS43 KDTX 051901
RWRMI
MICHIGAN HOURLY REGIONAL WEATHER ROUNDUP
NATIONAL WEATHER SERVICE DETROIT/PONTIAC MI
200 PM EST FRI FEB 05 2016

NOTE: "FAIR" INDICATES FEW OR NO CLOUDS BELOW 12,000 FEET WITH NO
SIGNIFICANT WEATHER AND/OR OBSTRUCTION TO VISIBILITY.

MIZ047>049-052>055-059>063-066>070-074>076-081>083-052000-
SOUTHEAST LOWER MICHIGAN

CITY           SKY/WX    TMP DP  RH WIND       PRES   REMARKS
ADRIAN         SUNNY     43  24  47 SW10      30.30F
ALMA           LGT SNOW  31  29  93 SW5       30.28F WCI  26
ANN ARBOR      SUNNY     36  24  62 SW8       30.29F WCI  30
BAD AXE        LGT SNOW  32  27  81 W7        30.28F WCI  25
CARO           CLOUDY    33  27  79 W5        30.27F WCI  28
DETROIT CITY   SUNNY     36  22  56 S12       30.30F WCI  28
DETROIT        MOSUNNY   39  22  50 S8        30.31F WCI  33
FLINT          CLOUDY    38  24  57 SW8       30.28F WCI  32
GROSSE ILE     SUNNY     36  27  69 S10       30.31F WCI  28
HILLSDALE      PTSUNNY   36  22  56 SW10      30.26F WCI  28
HOWELL         CLOUDY    37  23  58 SW8       30.26F WCI  30

CITY           SKY/WX    TMP DP  RH WIND       PRES   REMARKS
JACKSON        MOSUNNY   38  22  52 SW8       30.26F WCI  32
LAMBERTVILLE   MOSUNNY   38  20  48 S7        30.31F WCI  33
LANSING        CLOUDY    35  23  61 S10       30.27F WCI  27
LAPEER         CLOUDY    35  23  63 SW7       30.27F WCI  29
MASON          MOSUNNY   36  24  63 S3        30.27F
MONROE         SUNNY     38  21  49 SW5       30.30F WCI  35
MT. CLEMENS    MOSUNNY   36  27  70 SE13      30.29F WCI  27
PONTIAC        PTSUNNY   35  20  54 SW8       30.26F WCI  29
PORT HOPE        N/A     30  24  78 W8        30.26F WCI  22
PORT HURON     PTSUNNY   36  23  60 SW6       30.30F WCI  31
TRI CITIES     LGT SNOW  33  27  78 W9        30.29S WCI  25
MIDLAND        LGT SNOW  32  26  76 SW6       30.27F WCI  27
TROY           MOSUNNY   39  21  49 S12G18    30.30F WCI  32
SAGINAW HB     LGT SNOW  32  30  93 SW7       30.28F WCI  26
$$
MIZ043>046-050>051-056>058-064>065-071>073-077>080-052000-
SOUTHWEST LOWER MICHIGAN

CITY           SKY/WX    TMP DP  RH WIND       PRES   REMARKS
BATTLE CREEK   CLOUDY    33  25  72 SW10      30.28F WCI  25
BENTON HARBOR  LGT SNOW  32  27  81 VRB5      30.31F WCI  27
BIG RAPIDS     CLOUDY    31  23  74 W8        30.25F WCI  23
COLDWATER      CLOUDY    35  25  66 W5        30.28F WCI  31
FREMONT        CLOUDY    30  23  73 W7        30.28F WCI  23
HOLLAND        FLURRIES  31  25  78 VRB7      30.31S WCI  24
GRAND RAPIDS   LGT SNOW  32  27  81 W7        30.29F WCI  26
IONIA          LGT SNOW  32  28  86 SW5       30.27F WCI  27
KALAMAZOO      FLURRIES  34  25  69 W5        30.28F WCI  30
LUDINGTON      CLOUDY    29  20  69 NW8       30.30F WCI  21
MARSHALL       CLOUDY    34  24  66 SW6       30.27F WCI  29
MOUNT PLEASANT LGT SNOW  32  26  78 W5        30.27S WCI  27
MUSKEGON       CLOUDY    31  22  69 NW12      30.30F WCI  22
SOUTH HAVEN    FLURRIES  31  28  85 N6        30.30F WCI  26
$$
MIZ016>042-052000-
NORTHERN LOWER MICHIGAN

CITY           SKY/WX    TMP DP  RH WIND       PRES   REMARKS
ALPENA         FLURRIES  29  21  72 NW7       30.25F WCI  22
BEAVER ISLAND  SUNNY     29  16  60 W9        30.26F WCI  20
BELLAIRE       CLOUDY    30  19  64 NW6       30.27S WCI  24
CADILLAC       FLURRIES  28  22  79 W6        30.22F WCI  22
CHARLEVOIX     MOSUNNY   30  17  60 W9        30.29F WCI  21
FRANKFORT      CLOUDY    29  20  70 NW9       30.28S WCI  20
GAYLORD        LGT SNOW  26  21  81 W7        30.21S WCI  18
GRAYLING       FLURRIES  28  21  74 W8        30.24S WCI  20
HARBOR SPRINGS PTSUNNY   30  17  58 SW7       30.25S WCI  24
HOUGHTON LAKE  CLOUDY    28  22  78 W6        30.24F WCI  22
MANISTEE       CLOUDY    28  19  69 NW12      30.29S WCI  18
OSCODA         CLOUDY    30  22  73 W7        30.26F WCI  23
PELLSTON       MOSUNNY   27  15  61 W8        30.25F WCI  19
ROGERS CITY    FLURRIES  28  19  67 NW6       30.26S WCI  22
TRAVERSE CITY  FLURRIES  30  23  75 CALM      30.26F
$$
MIZ007>008-015-052000-
EASTERN UPPER MICHIGAN

CITY           SKY/WX    TMP DP  RH WIND       PRES   REMARKS
KINROSS        CLOUDY    27  19  74 W15       30.21S WCI  15
MACKINAC ISLAN SUNNY     27  20  76 W12       30.23F WCI  16
NEWBERRY       CLOUDY    26  15  64 W9        30.22F WCI  16
S. S. MARIE    CLOUDY    27  16  63 NW12      30.21F WCI  17
$$
MIZ004>006-011>014-085-052000-
CENTRAL UPPER MICHIGAN

CITY           SKY/WX    TMP DP  RH WIND       PRES   REMARKS
MANISTIQUE     MOSUNNY   29  13  50 NW8       30.25F WCI  21
ESCANABA       MOSUNNY   27  12  54 W8        30.27S WCI  18
MENOMINEE      CLOUDY    25  12  58 CALM      30.28F
SAWYER-GWINN   MOSUNNY   21  10  63 NW6       30.22F WCI  14
$$
MIZ001>003-009>011-084-052000-
WESTERN UPPER MICHIGAN

CITY           SKY/WX    TMP DP  RH WIND       PRES   REMARKS
IRON MOUNTAIN  SUNNY     25   8  48 NW5       30.23F WCI  19
HOUGHTON       SUNNY     21  11  65 W9        30.21F WCI  11
COPPER HARBOR    N/A     24  10  55 N8        30.24F WCI  15
IRONWOOD       CLOUDY    21  12  68 SW6       30.20F WCI  14
$$

ABBREVIATIONS USED IN REMARKS
   TC - TEMPERATURE IN CELSIUS
  WCI - WIND CHILL INDEX
   HX - HEAT INDEX
  VSB - VISIBILITY





USA.gov is the U.S. government's official web portal to all federal, state and local government web resources and services.